Weather History for Twin Falls, ID

Change the Weather History Date:

Tuesday, September 17, 2013

  Actual Average Record
Temperature  
Mean Temperature 67 °F -  
Max Temperature 78 °F 77 °F 93 °F (1989)
Min Temperature 55 °F 47 °F 29 °F (1987)
Degree Days  
Heating Degree Days 0 5  
Month to date heating degree days 0 51  
Since 1 July heating degree days 0 72  
Cooling Degree Days 2 1  
Month to date cooling degree days 97 51  
Year to date cooling degree days 1136 668  
Growing Degree Days 18 (Base 50)    
Moisture  
Dew Point 42 °F    
Average Humidity 38    
Maximum Humidity 53    
Minimum Humidity 23    
Precipitation  
Precipitation T in 0.02 in 0.14 in (2002)
Month to date precipitation 0.73 0.28  
Year to date precipitation 3.92 7.16  
Sea Level Pressure  
Sea Level Pressure 29.61 in    
Wind  
Wind Speed 9 mph (WSW)    
Max Wind Speed 30 mph    
Max Gust Speed 38 mph    
Visibility 10 miles    
Events Rain    
T = Trace of Precipitation, MM = Missing Value Source: NWS Daily Summary

Daily Weather History Graph

Daily Weather History Graph

Search for Another Location

Airport:

Trip Planner

Search our weather history database for the weather conditions in past years. The results will help you decide how hot, cold, wet, or windy it might be!

Date:

Astronomy

Sep. 17, 2013 Rise Set
Actual Time 7:20 AM MDT 7:43 PM MDT
Civil Twilight 6:52 AM MDT 8:11 PM MDT
Nautical Twilight 6:18 AM MDT 8:44 PM MDT
Astronomical Twilight 5:44 AM MDT 9:18 PM MDT
Moon 6:34 PM MDT (9/17) 5:17 AM MDT (9/17)
Length of Visible Light 13h 19m
Length of Day
12h 23m
Waxing Gibbous, 96% of the Moon is Illuminated
Sep 17
Waxing Gibbous
Sep 19
Full
Sep 26
Last Quarter
Oct 4
New
Oct 11
First Quarter

Hourly Weather History & Observations

Time (MDT) Temp. Dew Point Humidity Pressure Visibility Wind Dir Wind Speed Gust Speed Precip Events Conditions
12:53 AM 63.0 °F 45.0 °F 52% 29.66 in 10.0 mi SSW 6.9 mph - N/A   Clear
1:53 AM 62.1 °F 41.0 °F 46% 29.65 in 10.0 mi South 9.2 mph - N/A   Clear
2:53 AM 64.0 °F 39.9 °F 41% 29.64 in 10.0 mi SSW 10.4 mph - N/A   Clear
3:53 AM 61.0 °F 42.1 °F 50% 29.63 in 10.0 mi SSW 9.2 mph - N/A   Clear
4:53 AM 60.1 °F 42.1 °F 51% 29.62 in 10.0 mi SSW 8.1 mph - N/A   Clear
5:53 AM 60.1 °F 41.0 °F 49% 29.61 in 10.0 mi SSW 8.1 mph - N/A   Clear
6:53 AM 61.0 °F 39.9 °F 46% 29.61 in 10.0 mi SW 6.9 mph - N/A   Clear
7:53 AM 63.0 °F 39.0 °F 41% 29.62 in 10.0 mi WSW 4.6 mph - N/A   Clear
8:53 AM 64.9 °F 39.9 °F 40% 29.62 in 10.0 mi Calm Calm - N/A   Clear
9:53 AM 66.0 °F 41.0 °F 40% 29.62 in 10.0 mi NNW 4.6 mph - N/A   Clear
10:53 AM 66.9 °F 42.1 °F 40% 29.61 in 10.0 mi Variable 3.5 mph - N/A   Clear
11:53 AM 70.0 °F 44.1 °F 39% 29.60 in 10.0 mi WNW 5.8 mph - N/A   Clear
12:53 PM 69.1 °F 46.9 °F 45% 29.60 in 10.0 mi Calm Calm - N/A   Clear
1:53 PM 71.1 °F 46.9 °F 42% 29.57 in 10.0 mi WNW 4.6 mph - N/A   Clear
2:53 PM 73.9 °F 46.9 °F 38% 29.53 in 10.0 mi NW 5.8 mph - N/A   Clear
3:53 PM 75.9 °F 39.9 °F 27% 29.52 in 10.0 mi North 4.6 mph - N/A   Clear
4:53 PM 77.0 °F 39.9 °F 26% 29.51 in 10.0 mi NNW 6.9 mph - N/A   Clear
5:53 PM 75.9 °F 36.0 °F 23% 29.52 in 10.0 mi Calm Calm - N/A   Clear
6:53 PM 72.0 °F 37.0 °F 28% 29.55 in 10.0 mi SSW 3.5 mph - N/A   Clear
7:53 PM 69.1 °F 39.9 °F 35% 29.58 in 10.0 mi WSW 11.5 mph - N/A   Scattered Clouds
8:53 PM 66.0 °F 42.1 °F 42% 29.61 in 10.0 mi WSW 19.6 mph 27.6 mph 0.00 in   Partly Cloudy
9:53 PM 62.1 °F 45.0 °F 53% 29.65 in 10.0 mi West 28.8 mph 36.8 mph N/A   Mostly Cloudy
10:53 PM 59.0 °F 42.1 °F 53% 29.68 in 10.0 mi WSW 23.0 mph 31.1 mph N/A   Mostly Cloudy
11:53 PM 55.0 °F 44.1 °F 67% 29.71 in 10.0 mi West 25.3 mph 34.5 mph 0.00 in Rain Light Rain